[[{"header":{"parameterUnit":"m.s-1","parameterCategory":1,"la1":30.2991,"la2":30.254,"lo1":-89.0895,"lo2":-89.0444,"dy":0.0017,"dx":0.0017,"nx":28,"ny":28,"refTime":"2024-02-15T03:00:00:Z","depth":0,"parameterNumber":2,"parameterNumberName":"U-component_of_WINDS"},"data":[0,0,0,0,0,0,0,0,0,0,0,0,0,0,0,0,0,0,0,0,0,0,0,0,0,0,0,0,0,0,0,0,0,0,0,0,0,0,0,0,0,0,0,0,0,0,0,0,0,0,0,0,0,0,0,0,0,0,-1.569,-1.569,0,-1.5713,-1.5714,-1.5714,-1.5694,-1.5693,-1.5693,-1.5692,-1.5716,-1.5717,-1.5718,0,0,0,0,0,0,0,0,0,0,0,0,0,-1.5627,-1.5628,-1.5689,-1.569,-1.569,-1.5713,-1.5714,-1.5714,-1.5694,-1.5693,-1.5692,-1.5691,-1.5715,-1.5717,-1.5718,0,0,0,0,0,0,0,0,0,0,0,0,0,-1.5653,-1.5629,-1.5689,-1.5683,-1.5683,-1.5713,-1.5714,-1.5714,-1.5695,-1.5693,-1.5692,-1.5691,-1.5714,-1.5717,-1.5719,-1.5756,0,0,-1.5725,-1.5726,0,0,0,0,0,0,0,0,-1.5651,-1.5655,-1.5684,-1.5684,-1.5683,-1.57,-1.57,-1.5728,-1.5695,-1.569,-1.5692,-1.569,-1.5711,-1.5713,-1.5721,-1.5757,-1.5758,-1.5725,-1.5726,-1.5727,-1.5728,0,0,0,0,0,0,0,-1.565,-1.5654,-1.5699,-1.5684,-1.5684,-1.5679,-1.5681,-1.5705,-1.5707,-1.569,-1.5689,-1.5692,-1.5711,-1.5719,-1.5721,-1.5759,-1.5725,-1.5727,-1.5728,-1.5729,-1.5829,-1.583,0,0,0,0,0,0,-1.5648,-1.5653,-1.5698,-1.57,-1.5664,-1.5681,-1.5684,-1.5696,-1.5707,-1.5707,-1.5693,-1.5691,-1.5716,-1.5719,-1.5722,-1.5767,-1.5727,-1.5729,-1.5731,-1.5828,-1.5829,-1.5831,0,0,0,0,0,0,-1.5647,-1.5653,-1.5697,-1.5676,-1.5681,-1.5684,-1.5697,-1.5697,-1.5705,-1.5709,-1.5709,-1.5701,-1.5715,-1.5719,-1.5748,-1.5768,-1.573,-1.5732,-1.5826,-1.5828,-1.583,-1.5858,0,0,0,0,0,0,-1.5645,-1.5652,-1.5667,-1.5676,-1.5682,-1.5723,-1.5698,-1.5698,-1.5708,-1.5706,-1.5716,-1.5717,-1.5714,-1.5745,-1.575,-1.577,-1.5734,-1.5824,-1.5827,-1.5829,-1.5855,-1.5861,-1.5865,0,0,0,0,0,-1.5643,-1.5673,-1.5667,-1.5673,-1.57,-1.5724,-1.5728,-1.5724,-1.571,-1.5724,-1.5728,-1.5717,-1.5765,-1.5748,-1.5754,-1.5774,-1.5823,-1.5826,-1.5829,-1.5853,-1.586,-1.5865,0,0,0,0,0,0,-1.5665,-1.5674,-1.5668,-1.5702,-1.5713,-1.5721,-1.5739,-1.5731,-1.5746,-1.5743,-1.5738,-1.574,-1.5771,-1.5776,-1.5757,-1.5812,-1.5792,-1.5796,-1.5808,-1.5814,-1.5819,-1.5817,-1.5736,0,0,0,0,0,-1.5674,-1.5693,-1.57,-1.5729,-1.5735,-1.5736,-1.5746,-1.5743,-1.5754,-1.5758,-1.5763,-1.5774,-1.5792,-1.5803,-1.582,-1.5856,-1.5858,-1.5873,-1.5878,-1.5882,-1.5886,-1.5906,-1.5913,-1.5841,-1.5841,-1.5841,0,0,-1.5692,-1.5699,-1.5711,-1.5734,-1.5741,-1.5761,-1.574,-1.5762,-1.5776,-1.5761,-1.5789,-1.5794,-1.5805,-1.5839,-1.5854,-1.5843,-1.5907,-1.5886,-1.589,-1.5891,-1.591,-1.5917,-1.5923,-1.5843,-1.5843,-1.5842,0,0,-1.5735,-1.5743,-1.5768,-1.5777,-1.5789,-1.579,-1.5797,-1.5807,-1.5809,-1.5837,-1.5827,-1.5844,-1.5875,-1.5884,-1.5892,-1.5941,-1.5932,-1.5947,-1.5973,-1.5993,-1.5998,-1.6003,-1.6021,-1.6027,-1.595,-1.595,-1.595,0,-1.5756,-1.5785,-1.5782,-1.5805,-1.5815,-1.5803,-1.5829,-1.5838,-1.5855,-1.5862,-1.5851,-1.589,-1.5897,-1.5932,-1.5944,-1.5952,-1.5959,-1.5945,-1.5998,-1.6003,-1.6007,-1.6024,-1.6031,-1.5952,-1.5952,-1.5952,-1.5952,0,-1.5811,-1.5831,-1.5851,-1.5868,-1.5881,-1.5905,-1.5905,-1.5919,-1.5915,-1.5917,-1.5946,-1.5955,-1.5973,-1.5981,-1.5977,-1.6017,-1.601,-1.5999,-1.5978,-1.6016,-1.6032,-1.6038,-1.5955,-1.5954,-1.5953,-1.5953,0,0,-1.5867,-1.5883,-1.589,-1.5899,-1.5912,-1.5928,-1.5953,-1.5971,-1.5983,-1.5995,-1.6016,-1.6043,-1.6032,-1.6042,-1.6039,-1.6057,-1.6095,-1.6043,-1.6043,-1.6052,-1.614,-1.6148,-1.6155,-1.6089,-1.6091,-1.6091,-1.6139,0,-1.591,-1.5953,-1.5951,-1.599,-1.601,-1.6,-1.6021,-1.6032,-1.6035,-1.6052,-1.6056,-1.6075,-1.606,-1.6066,-1.6083,-1.6087,-1.6112,-1.6083,-1.6108,-1.6109,-1.6105,-1.6163,-1.6172,-1.6216,-1.6145,-1.6146,-1.6146,0,-1.5967,-1.5982,-1.6024,-1.6036,-1.6044,-1.6063,-1.608,-1.6097,-1.6109,-1.611,-1.6122,-1.6117,-1.6142,-1.6121,-1.6156,-1.6136,-1.6146,-1.615,-1.6151,-1.6153,-1.613,-1.6167,-1.623,-1.6237,-1.6156,-1.6155,-1.6154,0,-1.6004,-1.6035,-1.6064,-1.6071,-1.6086,-1.61,-1.6106,-1.6118,-1.6129,-1.6145,-1.6152,-1.617,-1.618,-1.6194,-1.6194,-1.6179,-1.6229,-1.6208,-1.6231,-1.6231,-1.6241,-1.624,-1.6307,-1.6248,-1.6248,-1.6248,-1.6248,0,-1.6052,-1.6078,-1.6081,-1.6099,-1.6128,-1.6126,-1.6155,-1.616,-1.6171,-1.6189,-1.6182,-1.62,-1.6199,-1.6217,-1.6217,-1.6246,-1.625,-1.6252,-1.6252,-1.6252,-1.6252,-1.6258,-1.6255,-1.625,-1.625,-1.6249,-1.6249,0,-1.6098,-1.6101,-1.6132,-1.6144,-1.6147,-1.6168,-1.6178,-1.6195,-1.6199,-1.6223,-1.6228,-1.6233,-1.6254,-1.6256,-1.628,-1.628,-1.6315,-1.6312,-1.6311,-1.631,-1.6333,-1.6331,-1.6405,-1.6415,-1.6351,-1.6351,-1.6352,0,-1.6129,-1.6148,-1.6163,-1.6175,-1.6183,-1.6203,-1.6215,-1.6215,-1.6228,-1.6244,-1.6259,-1.628,-1.6297,-1.6331,-1.6337,-1.6356,-1.6352,-1.6377,-1.6355,-1.6356,-1.6353,-1.6351,-1.6353,-1.6381,-1.6382,-1.6383,-1.6383,0,-1.6183,-1.6184,-1.6201,-1.622,-1.6235,-1.625,-1.6264,-1.6274,-1.6276,-1.6291,-1.6313,-1.6326,-1.6351,-1.6372,-1.6391,-1.6398,-1.6391,-1.639,-1.6397,-1.6397,-1.6396,-1.6397,-1.6323,-1.6388,-1.6388,-1.6387,-1.6387,-1.6387,-1.6222,-1.6239,-1.6252,-1.6273,-1.6283,-1.6297,-1.6314,-1.632,-1.6338,-1.6359,-1.6358,-1.6382,-1.6395,-1.642,-1.6429,-1.6448,-1.6439,-1.6448,-1.645,-1.6453,-1.6455,-1.6394,-1.6451,-1.6451,-1.6451,-1.6451,-1.6451,0,-1.6275,-1.6284,-1.6303,-1.6323,-1.6339,-1.6332,-1.6347,-1.6361,-1.6383,-1.6396,-1.6413,-1.6439,-1.6459,-1.6467,-1.6487,-1.6501,-1.6499,-1.6506,-1.6505,-1.6507,-1.6461,-1.6454,-1.6508,-1.6508,-1.6508,-1.6508,-1.6508,-1.6508,-1.6305,-1.6335,-1.6337,-1.6372,-1.638,-1.6404,-1.6414,-1.6426,-1.6437,-1.6466,-1.6483,-1.6488,-1.65,-1.6521,-1.6539,-1.6541,-1.6549,-1.6558,-1.6559,-1.6516,-1.651,-1.6504,-1.6497,-1.656,-1.656,-1.6602,-1.6603,-1.6603]},{"header":{"parameterUnit":"m.s-1","parameterCategory":1,"la1":30.2991,"la2":30.254,"lo1":-89.0895,"lo2":-89.0444,"dy":0.0017,"dx":0.0017,"nx":28,"ny":28,"refTime":"2024-02-15T03:00:00:Z","depth":0,"parameterNumber":3,"parameterNumberName":"V-component_of_WINDS"},"data":[0,0,0,0,0,0,0,0,0,0,0,0,0,0,0,0,0,0,0,0,0,0,0,0,0,0,0,0,0,0,0,0,0,0,0,0,0,0,0,0,0,0,0,0,0,0,0,0,0,0,0,0,0,0,0,0,0,0,0.6921,0.6921,0,0.6928,0.6928,0.6928,0.6962,0.6963,0.6963,0.6964,0.697,0.697,0.6969,0,0,0,0,0,0,0,0,0,0,0,0,0,0.6935,0.6935,0.6921,0.6921,0.6921,0.6928,0.6928,0.6928,0.6962,0.6963,0.6964,0.6964,0.697,0.697,0.6969,0,0,0,0,0,0,0,0,0,0,0,0,0,0.6934,0.6934,0.6921,0.6938,0.694,0.6928,0.6928,0.6928,0.6961,0.6963,0.6964,0.6965,0.6971,0.697,0.6969,0.694,0,0,0.6966,0.6966,0,0,0,0,0,0,0,0,0.6934,0.6934,0.6936,0.6937,0.6939,0.6945,0.6936,0.6932,0.6961,0.6953,0.6964,0.6965,0.6961,0.6961,0.696,0.694,0.6941,0.6966,0.6966,0.6965,0.6965,0,0,0,0,0,0,0,0.6934,0.6934,0.6924,0.6936,0.6938,0.6946,0.6947,0.6935,0.695,0.6954,0.6956,0.6957,0.6962,0.696,0.696,0.6941,0.6966,0.6966,0.6965,0.6965,0.69,0.6899,0,0,0,0,0,0,0.6932,0.6933,0.6923,0.6924,0.694,0.6945,0.6946,0.6942,0.6951,0.6953,0.6956,0.6959,0.6961,0.6961,0.696,0.6929,0.6965,0.6965,0.6964,0.6901,0.69,0.6898,0,0,0,0,0,0,0.6932,0.6931,0.6923,0.6929,0.6929,0.6943,0.6938,0.6942,0.694,0.6952,0.6955,0.6952,0.6962,0.6962,0.6945,0.6929,0.6964,0.6964,0.6903,0.6901,0.6899,0.6863,0,0,0,0,0,0,0.6932,0.6931,0.692,0.6929,0.6929,0.6908,0.6937,0.6941,0.6939,0.6942,0.6949,0.6951,0.6963,0.6947,0.6945,0.6929,0.6963,0.6904,0.6902,0.69,0.6866,0.6861,0.6856,0,0,0,0,0,0.6933,0.6909,0.6919,0.6918,0.6915,0.6907,0.6907,0.6922,0.6937,0.6927,0.6935,0.6951,0.6931,0.6945,0.6943,0.6926,0.6905,0.6903,0.69,0.6868,0.6862,0.6856,0,0,0,0,0,0,0.6896,0.691,0.6922,0.69,0.6902,0.6913,0.6899,0.6914,0.6911,0.6914,0.6933,0.6934,0.6915,0.6919,0.6934,0.69,0.6921,0.6918,0.6898,0.6892,0.6886,0.6886,0.6962,0,0,0,0,0,0.6886,0.6878,0.6891,0.687,0.6871,0.6885,0.6882,0.6893,0.6896,0.6897,0.6904,0.6905,0.69,0.6896,0.6891,0.6867,0.6869,0.6855,0.6849,0.6845,0.6842,0.6831,0.6825,0.689,0.689,0.689,0,0,0.6864,0.6871,0.6864,0.6863,0.6866,0.6858,0.6885,0.6875,0.6869,0.6895,0.6881,0.6886,0.6889,0.6869,0.6861,0.6872,0.6825,0.6842,0.6838,0.6838,0.6828,0.6822,0.6816,0.6888,0.6888,0.6888,0,0,0.682,0.6824,0.6808,0.6811,0.6816,0.6825,0.6822,0.683,0.6835,0.6821,0.6841,0.6834,0.6824,0.6826,0.6825,0.6784,0.6799,0.6782,0.6755,0.6744,0.6739,0.6735,0.6721,0.6715,0.6779,0.6779,0.6779,0,0.6792,0.6781,0.6798,0.6787,0.6786,0.681,0.6795,0.6796,0.6799,0.6798,0.681,0.6799,0.6803,0.6785,0.6775,0.6773,0.677,0.6781,0.6738,0.6734,0.673,0.6717,0.6712,0.6777,0.6777,0.6777,0.6777,0,0.6747,0.6739,0.6725,0.6729,0.6726,0.6713,0.6728,0.6724,0.6736,0.6744,0.673,0.6736,0.6734,0.673,0.6741,0.6713,0.672,0.6735,0.6757,0.6722,0.671,0.6705,0.6774,0.6774,0.6775,0.6776,0,0,0.668,0.6694,0.6688,0.6691,0.6698,0.6693,0.6681,0.6679,0.6676,0.6677,0.6668,0.6659,0.6674,0.6673,0.6685,0.6675,0.6643,0.6691,0.6692,0.6683,0.6614,0.6604,0.6598,0.6653,0.6652,0.6652,0.6614,0,0.6639,0.662,0.6636,0.6614,0.6607,0.663,0.662,0.6624,0.6632,0.6627,0.6636,0.663,0.6649,0.6649,0.664,0.6649,0.663,0.6652,0.6645,0.6645,0.6645,0.6591,0.658,0.6544,0.661,0.6609,0.6608,0,0.6588,0.6589,0.6566,0.6577,0.6575,0.6565,0.6566,0.6561,0.6566,0.6573,0.6573,0.6588,0.6577,0.6599,0.6585,0.6599,0.6598,0.6602,0.6601,0.6601,0.6625,0.6591,0.6533,0.6528,0.6601,0.6602,0.6602,0,0.6543,0.6538,0.6524,0.6525,0.6537,0.653,0.6534,0.654,0.6539,0.654,0.6539,0.6538,0.6537,0.6536,0.655,0.6565,0.6535,0.6557,0.6541,0.654,0.6534,0.6534,0.6476,0.6531,0.6531,0.6531,0.6532,0,0.6496,0.6482,0.6504,0.6496,0.6481,0.6499,0.6484,0.6491,0.6496,0.649,0.6509,0.6503,0.6522,0.6517,0.6528,0.6516,0.6515,0.6521,0.6524,0.6519,0.6519,0.6519,0.6522,0.653,0.653,0.6531,0.6531,0,0.6443,0.6457,0.6445,0.6457,0.646,0.6448,0.6459,0.6452,0.6462,0.6453,0.6453,0.6467,0.6464,0.6478,0.6475,0.6483,0.6465,0.6472,0.6464,0.6466,0.6449,0.6451,0.6389,0.6383,0.6441,0.6441,0.644,0,0.6413,0.6403,0.6414,0.6412,0.6416,0.6411,0.641,0.6428,0.6426,0.6432,0.6424,0.6422,0.6422,0.6414,0.6425,0.6424,0.6431,0.641,0.6431,0.6427,0.6432,0.6433,0.6432,0.6405,0.6405,0.6404,0.6403,0,0.6358,0.6366,0.6364,0.6365,0.6364,0.6365,0.6368,0.6364,0.6384,0.6381,0.6377,0.6377,0.6376,0.6373,0.6375,0.6379,0.6395,0.6397,0.6393,0.6389,0.6385,0.6388,0.6453,0.6398,0.6399,0.6399,0.6399,0.6399,0.6316,0.6309,0.6316,0.6314,0.6318,0.6321,0.6315,0.6325,0.6322,0.6323,0.6334,0.6328,0.6335,0.6338,0.6342,0.6338,0.6348,0.6342,0.6341,0.6339,0.6337,0.6385,0.6338,0.6338,0.6338,0.6338,0.6339,0,0.6263,0.6269,0.6267,0.6271,0.6269,0.6284,0.6289,0.6286,0.6282,0.6286,0.6286,0.6283,0.6281,0.6292,0.6292,0.6287,0.6294,0.6286,0.6287,0.6288,0.6327,0.6331,0.628,0.628,0.6281,0.6281,0.6281,0.6281,0.6235,0.6224,0.6233,0.6224,0.6231,0.6227,0.6228,0.623,0.6235,0.623,0.6229,0.6237,0.6244,0.6245,0.6244,0.6248,0.6247,0.6237,0.6243,0.6279,0.6285,0.6291,0.6294,0.6237,0.6237,0.6204,0.6204,0.6204]}]]